Preview of NWS' New Version of Forecast
This preview is not operational and should not be used for support decisions.

Regional Weather Roundup (RWR)

Issued by National Weather Service (NWS)

                            
000
ASUS46 KPQR 190610
RWROR 

OREGON REGIONAL WEATHER ROUNDUP
NATIONAL WEATHER SERVICE PORTLAND OR
1000 PM PST MON FEB 18 2019

NOTE: "FAIR" INDICATES FEW OR NO CLOUDS BELOW 12,000 FEET WITH
NO SIGNIFICANT WEATHER AND/OR OBSTRUCTIONS TO VISIBILITY.

ORZ001>013-190700-
NORTHWEST OREGON

  
CITY           SKY/WX    TMP DP  RH WIND       PRES   REMARKS
ASTORIA        CLOUDY    39  38  96 CALM      30.36S                  
6HR MIN TEMP:  38; 6HR MAX TEMP:  46; 6HR PCP:  0.01;                

TILLAMOOK      CLOUDY    41  37  87 SE3       30.39F                  
NEWPORT        LGT RAIN  36  36 100 SE3       30.41F                  
PORTLAND       CLOUDY    40  35  83 SE5       30.37F                  
6HR MIN TEMP:  39; 6HR MAX TEMP:  44; 6HR PCP: TRACE;                

VANCOUVER WA   CLOUDY    39  35  86 SE3       30.37F                  
6HR MIN TEMP:  39; 6HR MAX TEMP:  44; 6HR PCP: TRACE;                

SCAPPOOSE      LGT RAIN  40  37  89 CALM      30.36F FOG              
6HR MIN TEMP:  38; 6HR MAX TEMP:  43; 6HR PCP:  0.02;                

HILLSBORO      CLOUDY    37  36  96 CALM      30.36F                  
6HR MIN TEMP:  36; 6HR MAX TEMP:  42; 6HR PCP: TRACE;                

AURORA         CLOUDY    39  35  86 CALM      30.37F                  
6HR MIN TEMP:  39; 6HR MAX TEMP:  43;                                

MCMINNVILLE    CLOUDY    39  36  89 CALM      30.36F                  
6HR MIN TEMP:  39; 6HR MAX TEMP:  44;                                

SALEM          CLOUDY    40  33  76 CALM      30.37S                  
6HR MIN TEMP:  40; 6HR MAX TEMP:  46;                                

CORVALLIS      CLOUDY    36  35  96 CALM      30.39F                  
EUGENE         MOCLDY    37  33  85 S3        30.39S                  
6HR MIN TEMP:  37; 6HR MAX TEMP:  45;                                

$$

ORZ021-028-190700-
SOUTHWEST OREGON

  
CITY           SKY/WX    TMP DP  RH WIND       PRES   REMARKS
NORTH BEND     CLOUDY    38  37  97 SE5       30.42S                  
6HR MIN TEMP:  37; 6HR MAX TEMP:  47;                                

BROOKINGS      CLEAR     44  27  51 NE8       30.35S                  
ROSEBURG       CLEAR     34  30  85 CALM      30.39R                  
6HR MIN TEMP:  34; 6HR MAX TEMP:  47;                                

SEXTON SUMMIT  CLEAR     25  24  96 N12       30.23S WCI  14          
6HR MIN TEMP:  24; 6HR MAX TEMP:  30;                                

GRANTS PASS    FAIR      30  27  86 CALM      30.38                   
MEDFORD        CLEAR     34  27  75 CALM      30.33S                  
6HR MIN TEMP:  34; 6HR MAX TEMP:  45;                                

$$

ORZ014>016-041-190700-
COLUMBIA GORGE

  
CITY           SKY/WX    TMP DP  RH WIND       PRES   REMARKS
TROUTDALE      CLOUDY    40  35  83 CALM      30.37F                  
6HR MIN TEMP:  39; 6HR MAX TEMP:  44; 6HR PCP: TRACE;                

THE DALLES     CLEAR     29  24  82 SE7       30.31F                  
6HR MIN TEMP:  26; 6HR MAX TEMP:  35;                                

$$

ORZ029>031-041-044-049-050-061>064-502-503-505>511-190700-
EASTERN OREGON

  
CITY           SKY/WX    TMP DP  RH WIND       PRES   REMARKS
MADRAS         NOT AVBL                                               
REDMOND        CLOUDY    32  22  66 SW3       30.24S                  
6HR MIN TEMP:  32; 6HR MAX TEMP:  39;                                

BEND           MOCLDY    28  19  69 CALM      30.23S                  
PRINEVILLE     CLOUDY    30  23  74 CALM      30.23                   
KLAMATH FALLS  CLEAR     23  17  78 S6        30.20R                  
6HR MIN TEMP:  22; 6HR MAX TEMP:  35;                                

LAKEVIEW       CLEAR      7   4  87 NW8       30.17S                  
HERMISTON      PTCLDY    27  23  85 W6        30.29S                  
6HR MIN TEMP:  26; 6HR MAX TEMP:  37;                                

PENDLETON      CLOUDY    32  25  75 S3        30.24F                  
6HR MIN TEMP:  29; 6HR MAX TEMP:  32;                                

JOHN DAY       CLOUDY    28  22  76 W3        30.17                   
MEACHAM        FLURRIES  24  19  81 CALM      30.13F                  
6HR MIN TEMP:  22; 6HR MAX TEMP:  24; 6HR PCP: TRACE;                

LA GRANDE      FLURRIES  27  21  78 N8        30.20S                  
6HR MIN TEMP:  26; 6HR MAX TEMP:  28; 6HR PCP: TRACE;                

BAKER CITY     CLOUDY    26  19  74 SW5       30.16S                  
6HR MIN TEMP:  26; 6HR MAX TEMP:  30;                                

BURNS          CLOUDY    22  15  75 W7        30.15F                  
6HR MIN TEMP:  19; 6HR MAX TEMP:  30;                                

ROME             N/A      9   3  77 SE8       30.13F                  
6HR MIN TEMP:   9; 6HR MAX TEMP:  30;                                

ONTARIO        MOCLDY    27  18  69 W7        30.23S                  
6HR MIN TEMP:  27; 6HR MAX TEMP:  39;                                

$$